Wind_Speed
25 26 28 29 31 32 32 32 36 41 42 41 43 40 42 43 47 45 30 46 51 48 46 45 39 51 42 46 43 36 44 31 38 48 47 43 37 35
27 26 25 26 28 29 28 27 30 36 44 37 39 40 38 42 45 47 59 45 43 55 59 52 47 46 41 37 35 39 45 48 40 38 28 30 31 30
28 29 26 25 25 25 25 26 28 28 34 35 36 37 40 38 40 40 45 43 41 38 45 57 54 50 45 38 35 33 32 35 39 47 44 33 36 41
29 28 26 26 24 23 25 26 25 22 28 33 33 33 32 29 33 35 37 50 42 29 36 40 49 51 45 41 38 35 35 36 37 39 38 39 40 37
30 31 26 25 23 23 24 25 22 20 22 28 29 27 32 30 31 33 35 37 43 30 27 32 38 46 46 44 42 41 41 41 43 41 40 41 43 41
27 28 26 26 23 24 25 25 21 21 22 23 26 22 23 21 29 33 31 32 35 27 32 26 30 32 36 42 46 47 47 45 43 43 43 42 41 42
26 26 26 26 25 23 24 24 24 23 21 21 22 21 18 18 18 18 23 25 30 24 24 30 26 25 29 32 34 36 41 44 46 47 47 47 46 45
26 24 28 26 26 25 22 24 26 26 24 23 22 20 20 21 18 16 13 16 24 24 29 21 24 27 30 33 31 34 37 38 40 43 45 46 47 48
29 27 26 25 24 23 23 22 24 27 27 24 24 22 19 19 19 18 15 14 13 18 24 25 26 28 31 35 35 36 36 38 41 43 45 47 50 49
29 28 26 21 22 24 24 25 26 24 26 28 27 25 23 20 20 19 19 19 18 21 24 26 26 28 31 33 33 35 37 38 39 40 41 43 44 53
27 27 25 21 21 25 27 26 28 28 26 25 27 27 25 23 22 23 23 23 23 24 26 29 29 31 31 32 33 33 34 37 39 40 41 41 38 36
28 28 26 24 20 22 27 29 29 31 30 29 28 28 28 27 26 26 26 28 27 28 29 31 29 31 34 35 35 34 34 35 35 37 33 37 38 38
29 28 28 27 24 21 21 24 28 29 31 31 31 30 29 29 30 31 30 29 29 30 31 31 32 33 36 37 37 38 40 38 38 38 37 38 38 35
31 29 27 27 26 25 24 22 21 22 23 26 30 31 32 34 33 31 31 29 29 30 32 32 32 35 34 35 39 39 37 40 40 42 41 41 41 41
33 31 29 27 28 26 25 25 25 25 24 23 24 24 25 24 26 30 35 37 32 32 29 32 31 30 34 39 39 39 37 38 40 39 41 39 41 39
31 31 31 28 27 29 27 26 25 24 24 24 24 24 25 25 22 23 25 25 29 31 30 29 28 29 32 35 40 43 44 43 43 45 45 42 43 42
33 33 31 30 29 27 28 26 26 25 23 22 21 20 20 20 20 17 17 17 19 19 19 19 20 20 21 19 19 22 25 27 26 25 23 27 31 33
37 35 32 32 31 29 28 26 26 25 24 22 22 20 19 20 19 18 16 17 18 17 17 18 18 18 17 17 16 17 18 20 21 20 22 23 23 27
36 37 35 31 30 30 29 28 26 24 24 23 22 21 21 21 20 20 19 18 17 19 19 19 18 18 18 17 17 18 18 18 18 18 20 20 20 25
33 34 34 34 35 30 26 25 24 23 23 22 22 22 20 21 21 21 20 20 20 20 20 19 19 18 18 17 16 19 18 18 18 18 19 19 20 24
31 30 31 34 35 34 32 28 22 20 20 20 21 21 20 20 20 20 20 19 19 19 20 20 19 19 19 18 18 18 20 19 20 20 21 21 22 23
31 30 28 27 30 31 30 30 28 23 23 23 24 24 22 20 19 19 19 17 17 17 17 18 18 19 18 17 18 19 20 20 20 20 20 20 21 22
29 29 27 27 22 22 19 17 19 20 21 23 23 22 22 20 20 19 19 17 16 16 16 16 17 18 19 19 18 18 19 19 19 20 20 20 21 22
Wind_Direction
291 287 290 291 289 288 286 284 287 292 292 291 287 277 265 254 249 251 255 248 239 239 240 250 252 254 255 259 250 242 239 233 246 237 240 236 235 240
298 291 288 289 291 289 288 288 289 290 291 294 289 283 274 263 252 248 248 260 252 241 242 247 248 249 256 257 259 268 269 269 278 262 230 245 253 253
307 298 293 289 293 294 291 291 291 293 294 301 295 291 279 271 265 259 251 253 248 251 243 239 242 245 250 251 255 255 253 247 246 252 272 257 255 256
327 303 293 290 293 292 291 298 297 296 300 304 302 295 286 270 267 266 263 257 249 249 239 240 241 245 245 245 245 245 251 253 254 252 251 248 247 249
326 327 296 284 289 288 293 295 292 291 297 304 310 312 280 270 265 265 268 265 256 243 232 229 238 240 243 243 244 242 245 249 254 251 250 247 250 250
320 326 311 284 282 287 291 291 283 287 293 298 312 320 313 291 263 267 265 259 255 257 250 242 229 237 240 242 244 247 248 250 252 252 254 254 254 252
317 316 319 287 275 278 287 282 281 280 288 299 305 316 327 318 306 283 260 251 257 249 248 246 250 247 252 250 250 251 254 254 252 253 258 260 259 257
313 315 314 297 268 270 279 283 282 279 283 290 295 303 311 316 320 314 310 257 255 255 256 261 257 252 252 252 252 253 252 252 254 255 256 260 264 264
313 317 315 300 270 265 267 274 278 283 285 286 288 289 288 289 297 304 307 292 269 253 252 259 256 254 255 252 251 253 254 253 252 253 256 259 258 260
310 314 316 304 280 267 264 268 273 278 280 283 286 289 285 280 276 272 272 270 264 261 262 264 257 256 257 258 258 258 257 256 258 257 259 260 261 256
304 307 310 309 284 270 268 268 270 274 274 277 278 285 286 283 279 275 272 267 263 260 259 261 259 258 257 257 257 257 257 257 257 258 258 260 263 257
301 303 305 306 302 279 269 269 268 272 274 273 271 271 277 280 278 272 275 271 269 269 265 266 270 265 262 255 257 257 255 260 252 259 255 259 259 254
297 299 301 303 303 296 282 271 271 271 269 270 272 271 268 269 271 272 271 271 268 270 271 269 268 264 266 260 262 263 259 254 256 252 260 258 261 256
293 294 295 298 298 300 295 286 278 275 273 268 268 271 271 270 268 268 263 270 266 270 273 273 272 268 270 261 271 264 261 261 258 260 257 258 254 254
291 291 291 292 294 294 292 288 283 278 275 274 273 274 278 274 277 271 266 261 259 269 263 273 269 273 264 268 268 262 267 266 266 267 260 258 265 252
289 290 289 289 288 291 290 289 286 281 280 277 273 274 275 274 277 277 277 264 254 257 266 272 271 270 269 270 267 265 267 267 267 265 258 257 260 261
284 289 289 288 285 284 284 286 287 285 281 278 277 277 277 278 278 277 278 272 268 266 267 267 267 271 276 284 278 265 265 269 273 284 282 267 261 260
287 277 279 289 287 286 284 283 282 282 280 277 276 273 272 272 272 271 267 271 272 269 269 267 269 268 267 267 266 263 262 264 269 271 272 271 266 265
288 284 278 276 280 284 286 286 285 281 280 279 278 275 275 272 268 268 267 264 262 267 269 267 263 260 262 263 258 257 258 261 263 268 272 276 277 276
293 292 288 283 276 275 283 286 283 284 284 285 283 281 279 277 276 273 269 269 268 264 261 259 262 263 262 259 261 268 270 271 272 273 275 278 276 276
288 290 292 286 280 277 272 267 276 290 291 292 289 286 282 279 277 274 272 270 269 268 268 268 265 264 267 269 266 263 267 269 271 274 276 276 277 278
284 290 286 288 282 276 274 271 269 276 283 285 284 285 286 284 281 279 277 275 274 273 272 271 272 272 269 268 272 275 277 277 274 274 273 274 274 274
281 285 282 279 282 283 276 280 283 284 283 281 280 281 281 282 283 283 284 282 280 278 276 276 275 274 275 276 275 275 276 279 281 282 281 276 273 272
Height
3000 2998 2997 2996 2994 2993 2992 2989 2985 2978 2978 2980 2979 2981 2980 2981 2982 2984 2984 2986 2993 2996 3000 3004 3010 3009 3011 3016 3023 3028 3029 3030 3036 3039 3044 3048 3051 3055
2993 2991 2989 2987 2987 2985 2983 2981 2980 2974 2964 2970 2968 2968 2968 2966 2969 2971 2971 2970 2977 2982 2987 2991 2997 3002 3004 3008 3014 3017 3016 3020 3025 3030 3032 3037 3041 3044
2987 2984 2983 2980 2978 2978 2976 2975 2971 2968 2961 2961 2960 2958 2955 2956 2956 2959 2960 2961 2965 2968 2973 2979 2986 2991 2994 2999 3003 3007 3009 3010 3013 3019 3022 3028 3034 3036
2983 2978 2977 2975 2973 2971 2970 2967 2965 2964 2959 2954 2953 2950 2948 2947 2947 2948 2950 2951 2954 2957 2960 2966 2972 2979 2983 2989 2993 2997 3000 3003 3006 3010 3015 3018 3021 3025
2977 2972 2970 2968 2968 2965 2963 2962 2961 2958 2955 2951 2946 2942 2941 2941 2939 2940 2941 2943 2945 2947 2949 2953 2960 2966 2972 2977 2982 2985 2990 2993 2995 2997 3004 3008 3013 3013
2971 2967 2964 2962 2961 2960 2959 2958 2956 2953 2950 2947 2943 2939 2936 2933 2932 2932 2932 2935 2937 2941 2942 2944 2950 2956 2961 2966 2970 2974 2978 2981 2985 2988 2992 2996 3000 3002
2965 2961 2958 2955 2954 2953 2952 2952 2951 2948 2946 2943 2939 2937 2934 2931 2928 2926 2926 2928 2931 2935 2937 2940 2942 2948 2954 2958 2961 2964 2967 2970 2974 2978 2981 2984 2988 2991
2959 2955 2951 2947 2946 2946 2945 2945 2944 2942 2941 2938 2936 2933 2931 2928 2926 2925 2923 2923 2926 2931 2933 2936 2938 2940 2945 2948 2952 2955 2958 2960 2963 2967 2970 2973 2975 2977
2953 2948 2944 2940 2938 2939 2939 2937 2936 2935 2934 2933 2932 2929 2927 2926 2924 2922 2921 2922 2923 2926 2927 2929 2932 2935 2936 2937 2942 2946 2948 2951 2954 2956 2959 2961 2963 2966
2947 2943 2938 2934 2932 2932 2931 2931 2929 2928 2928 2927 2926 2925 2924 2923 2921 2920 2920 2919 2920 2921 2922 2923 2926 2927 2929 2931 2934 2936 2938 2941 2943 2945 2947 2949 2950 2953
2939 2937 2933 2929 2926 2925 2925 2924 2922 2921 2920 2919 2919 2918 2918 2917 2917 2916 2915 2915 2915 2915 2915 2916 2919 2920 2922 2922 2924 2927 2928 2929 2931 2933 2935 2936 2938 2938
2932 2930 2926 2923 2920 2917 2915 2915 2915 2913 2912 2911 2910 2910 2910 2910 2910 2910 2909 2909 2909 2908 2909 2910 2911 2912 2912 2913 2915 2916 2918 2919 2920 2921 2922 2924 2926 2929
2926 2922 2919 2916 2913 2911 2908 2906 2905 2904 2904 2903 2902 2901 2900 2900 2900 2901 2901 2901 2901 2901 2901 2902 2902 2903 2903 2903 2905 2907 2908 2908 2908 2911 2912 2913 2915 2918
2919 2915 2912 2910 2906 2903 2901 2899 2896 2895 2894 2893 2892 2892 2891 2891 2890 2889 2890 2891 2891 2892 2892 2892 2892 2893 2893 2894 2894 2896 2897 2897 2898 2898 2899 2901 2904 2907
2911 2908 2905 2902 2900 2897 2895 2893 2890 2888 2886 2885 2884 2883 2881 2880 2880 2880 2879 2879 2880 2882 2882 2883 2883 2883 2884 2884 2884 2885 2886 2887 2888 2888 2889 2890 2892 2894
2901 2899 2897 2894 2892 2891 2888 2886 2884 2882 2879 2878 2876 2875 2874 2872 2870 2871 2870 2870 2870 2871 2871 2872 2872 2871 2872 2872 2872 2873 2875 2876 2878 2878 2878 2879 2880 2882
2892 2890 2888 2886 2884 2881 2880 2877 2876 2875 2873 2871 2870 2869 2867 2866 2865 2862 2863 2863 2863 2863 2863 2862 2862 2863 2863 2862 2861 2863 2865 2867 2867 2867 2866 2867 2868 2870
2884 2881 2880 2878 2876 2874 2872 2869 2868 2867 2866 2864 2864 2862 2861 2861 2859 2858 2856 2856 2857 2857 2857 2857 2857 2856 2856 2856 2857 2857 2858 2859 2860 2861 2861 2862 2863 2862
2874 2872 2870 2869 2868 2866 2864 2863 2861 2859 2859 2858 2857 2856 2855 2854 2853 2853 2852 2850 2850 2851 2851 2851 2850 2850 2851 2851 2852 2850 2851 2852 2853 2853 2853 2854 2855 2853
2866 2863 2861 2860 2859 2858 2857 2855 2853 2852 2852 2851 2850 2849 2848 2848 2848 2847 2846 2845 2845 2845 2845 2844 2845 2846 2845 2845 2845 2845 2846 2846 2846 2846 2846 2846 2847 2845
2857 2855 2853 2851 2850 2849 2848 2848 2848 2847 2846 2845 2844 2843 2843 2842 2842 2841 2841 2840 2840 2840 2840 2840 2839 2839 2839 2839 2839 2838 2837 2838 2839 2839 2839 2839 2838 2837
2849 2846 2844 2843 2842 2840 2840 2839 2839 2839 2839 2839 2839 2839 2838 2837 2836 2835 2835 2834 2833 2833 2833 2833 2833 2833 2832 2832 2833 2833 2832 2832 2832 2831 2831 2831 2831 2830
2840 2838 2837 2836 2835 2833 2833 2833 2833 2834 2833 2833 2833 2833 2832 2831 2830 2829 2829 2828 2827 2827 2826 2826 2826 2826 2826 2826 2826 2826 2825 2825 2825 2825 2825 2825 2824 2823